Regional Weather Roundup
Issued by NWS

Home | Current Version | Previous Version | Text Only | Print | Product List | Glossary On
Versions: 1 2 3 4 5 6 7 8 9 10 11 12 13 14 15 16 17 18 19 20 21 22 23 24 25 26 27 28 29 30 31 32 33 34 35 36 37 38 39 40 41 42 43 44 45 46 47 48 49 50
000
ASUS45 KBOI 122110
RWRID

IDAHO REGIONAL WEATHER ROUNDUP
NATIONAL WEATHER SERVICE BOISE ID
200 PM MST TUE NOV 12 2019

NOTE: "FAIR" INDICATES FEW OR NO CLOUDS BELOW 12000 FEET
WITH NO SIGNIFICANT WEATHER AND/OR OBSTRUCTIONS TO VISIBILITY

IDZ012-014-122200-
SOUTHWEST IDAHO


CITY           SKY/WX    TMP DP  RH WIND       PRES   REMARKS
BOISE          CLOUDY    48  22  35 N7        30.14F
CALDWELL       CLOUDY    46  23  40 SW6       30.15F
MOUNTAIN HOME  PTSUNNY   53  18  25 SE13      30.11F
$$

IDZ016-017-122200-
SOUTHCENTRAL IDAHO


CITY           SKY/WX    TMP DP  RH WIND       PRES   REMARKS
BURLEY         PTSUNNY   58  20  22 N3        30.11F
JEROME         NOT AVBL
TWIN FALLS     SUNNY     55  19  24 NE9       30.13F
$$

IDZ019>023-122200-
SOUTHEAST IDAHO


CITY           SKY/WX    TMP DP  RH WIND       PRES   REMARKS
IDAHO FALLS    CLOUDY    47  16  29 SW6       30.16F
POCATELLO      MOSUNNY   55   9  16 S14G22    30.14F
REXBURG        CLOUDY    45  17  32 SW5       30.16F
$$

IDZ006-010-011-018-031-032-122200-
CENTRAL IDAHO MOUNTAINS


CITY           SKY/WX    TMP DP  RH WIND       PRES   REMARKS
MCCALL         CLOUDY    42  20  41 W3        30.11F
STANLEY          N/A     50  13  22 N5        30.13F
SALMON         CLOUDY    41  17  38 CALM      30.08F
CHALLIS        MOSUNNY   39  17  41 CALM      30.09F
$$

IDZ002-004-006-007-026-122200-
NORTHERN IDAHO


CITY           SKY/WX    TMP DP  RH WIND       PRES   REMARKS
LEWISTON       CLOUDY    49  32  52 W3        30.04S
LOWELL           N/A     44  37  76 CALM      30.07F
COEUR D`ALENE  MIX PCPN  33  30  88 N5        30.03S WCI  29
MULLAN PASS    SNOW      30  26  85 VRB5      29.95S VSB 1/4 WCI  25
$$



USA.gov is the U.S. government's official web portal to all federal, state and local government web resources and services.